Home   Weather   Bloemfontein   Past weeks

Flag for South Africa Past Weather in Bloemfontein, South Africa — Yesterday and Last 2 Weeks

Now
59 °F

Cool.


Feels Like: 56 °F
Forecast: 59 / 74 °F
Wind: 15 mph from Northeast

Location: Bloemfontein Airport

Current Time: Sep 26, 2016 at 2:18:20 AM

Latest Report: Sep 26, 2016 at 2:00 AM


Visibility: N/A

Pressure: 30.09 "Hg (25.50 "Hg at 1397m altitude)

Humidity: 68%

Dew Point: 48 °F

Location of BloemfonteinLocation

Past Weather in Bloemfontein — Graph

°F

Bloemfontein Temperature Yesterday

Maximum temperature yesterday: 82 °F (at 5:00 PM)
Minimum temperature yesterday: 41 °F (at 6:00 AM)
Average temperature yesterday: 61 °F

High & Low Weather Summary for the Past Weeks

 TemperatureHumidityPressure
High84 °F (Sep 21, 2:00 PM)87% (Sep 19, 6:00 AM)30.45 "Hg (Sep 19, 6:00 AM)
Low36 °F (Sep 19, 6:00 AM)5% (Sep 13, 5:00 AM)29.83 "Hg (Sep 15, 5:00 PM)
Average61 °F41%30.16 "Hg
* Reported Sep 11 1:00 AM — Sep 26 1:00 AM, Bloemfontein, Weather by CustomWeather, © 2016

Note: Actual official high and low records may vary slightly from our data, if they occured in-between our weather recording intervals... More about our weather records

Advertising

Bloemfontein Weather History for the Previous 24 Hours

Scroll right to see more
 ConditionsComfort  
Time TempWeatherWind HumidityBarometerVisibility
1:00 AM
Mon, Sep 26
57 °FRefreshingly cool.9 mph36%30.12 "HgN/A
12:52 AM57 °FRefreshingly cool.9 mph36%30.12 "HgN/A
12:00 AM50 °FCool.No wind40%30.09 "HgN/A
11:00 PM
Sun, Sep 25
52 °FCool.No wind35%30.12 "HgN/A
10:00 PM55 °FRefreshingly cool.1 mph33%30.12 "HgN/A
9:00 PM59 °FRefreshingly cool.1 mph27%30.12 "HgN/A
8:00 PM63 °FClear.No wind24%30.09 "Hg10 mi
7:00 PM70 °FClear.1 mph17%30.09 "Hg10 mi
5:00 PM82 °FSunny.6 mph9%30.09 "Hg10 mi
4:00 PM81 °FPassing clouds.5 mph10%30.07 "HgN/A
3:00 PM81 °FPassing clouds.7 mph11%30.09 "HgN/A
2:00 PM81 °FPassing clouds.9 mph13%30.12 "HgN/A
1:00 PM77 °FSunny.7 mph13%30.15 "Hg10 mi
12:00 PM75 °FSunny.3 mph15%30.18 "Hg10 mi
11:00 AM73 °FSunny.5 mph16%30.21 "Hg10 mi
10:00 AM72 °FPassing clouds.7 mph23%30.21 "HgN/A
9:00 AM66 °FPassing clouds.8 mph28%30.21 "HgN/A
8:00 AM57 °FSunny.1 mph36%30.21 "Hg10 mi
7:00 AM48 °FSunny.2 mph54%30.18 "Hg10 mi
6:00 AM41 °FSunny.2 mph61%30.18 "Hg10 mi
5:00 AM43 °FClear.No wind57%30.21 "Hg10 mi
4:00 AM45 °FQuite cool.No wind53%30.15 "HgN/A
3:00 AM46 °FCool.5 mph50%30.18 "HgN/A
2:00 AM45 °FQuite cool.5 mph61%30.18 "HgN/A
Weather by CustomWeather, © 2016

See weather overviewHow to use our weather pages